Location: Mohawk View
(42.7837°N, 73.7885°W)
Time: 08:20:10
(UTC+00:00)

Meteor 1-24 Rocket - Pass Details

Date: 29 October 2021
Orbit: 790 x 927 km, 81.3° (Epoch: 27 November)

Event Time Altitude Azimuth Distance (km) Brightness Sun altitude
Rises 10:04:42 0° 196° (SSW) 3,289 6.7 -15.4°
Reaches altitude 10° 10:07:03 10° 199° (SSW) 2,374 5.9 -15.0°
Maximum altitude 10:12:22 67° 282° (WNW) 887 3.6 -14.0°
Drops below altitude 10° 10:17:55 10° 5° (N) 2,467 6.1 -13.0°
Sets 10:20:24 0° 8° (N) 3,427 6.9 -12.5°
